Regional Weather Roundup
Issued by NWS Cleveland, OH

Home | Current Version | Previous Version | Text Only | Print | Product List | Glossary Off
Versions: 1 2 3 4 5 6 7 8 9 10 11 12 13 14 15 16 17 18 19 20 21 22 23 24 25 26 27 28 29 30 31 32 33 34 35 36 37 38 39 40 41 42 43 44 45 46 47 48 49 50

000
ASUS41 KCLE 281100
RWRCLE
OHIO REGIONAL WEATHER ROUNDUP
NATIONAL WEATHER SERVICE WILMINGTON, OH
700 AM EDT TUE MAR 28 2017

NOTE: "FAIR" INDICATES FEW OR NO CLOUDS BELOW 12,000 FEET WITH NO
SIGNIFICANT WEATHER AND/OR OBSTRUCTIONS TO VISIBILITY.

OHZ001>008-015>018-024>027-034-035-043-044-281200-
   NORTHWEST OHIO

CITY           SKY/WX    TMP DP  RH WIND       PRES   REMARKS
DEFIANCE       CLOUDY    48  45  89 N8        29.94R
FINDLAY        CLOUDY    49  46  90 NE16      29.90R FOG
TOLEDO EXPRESS CLOUDY    47  45  93 E7        29.93R
TOLEDO EXEC    CLOUDY    43  41  93 NE10      29.95R
LIMA           LGT RAIN  51  50  96 N12       29.90R FOG
$$

OHZ009>014-019>023-028>033-038-089-281200-
   NORTHEAST OHIO

CITY           SKY/WX    TMP DP  RH WIND       PRES   REMARKS
CLE-HOPKINS    FOG       48  44  86 NE13      29.91R VSB 3/4
CLE-LAKEFRONT  FOG       42  41  96 NE12      29.89S VSB 1/4
CUY CO. ARPT   LGT RAIN  48  46  93 NE12      29.89  FOG
LORAIN-ELYRIA  CLOUDY    46  44  93 NE13      29.90R FOG
ASHTABULA      CLOUDY    47  47 100 NE6       29.89R FOG
AKRON-CANTON   HVY RAIN  52  49  89 NE9       29.85R FOG
WOOSTER        NOT AVBL
MANSFIELD      LGT RAIN  51  51 100 N9        29.87R FOG
YOUNGSTOWN     LGT RAIN  51  49  92 NE9       29.86S FOG
$$

OHZ042-051>053-060>062-070>072-077>081-281200-
  SOUTHWEST OHIO

CITY           SKY/WX    TMP DP  RH WIND       PRES   REMARKS
CINC-COVINGTON DRIZZLE   55  55 100 W6        29.87R FOG
CINC-LUNKEN    LGT RAIN  56  56 100 W6        29.87R FOG
HAMILTON       CLOUDY    56  56 100 W6        29.88R FOG
DAYTON         LGT RAIN  54  54 100 N7        29.86R FOG
WRIGHT-PAT AFB DRIZZLE   55  55 100 NW3       29.86R FOG
DAYTON GENERAL CLOUDY    55  55 100 S5        29.85R FOG
WILMINGTON     CLOUDY    54  54 100 SW5       29.86R
$$

OHZ036-037-039>041-045>050-054>059-063>069-073>076-082>088-281200-
  CENTRAL AND SOUTHEAST OHIO

CITY           SKY/WX    TMP DP  RH WIND       PRES   REMARKS
COLUMBUS       DRIZZLE   57  56  96 CALM      29.84R FOG
OSU AIRPORT    CLOUDY    54  54 100 N5        29.84S FOG
BOLTON FIELD   NOT AVBL
RICKENBACK AFB NOT AVBL
NEWARK         MOCLDY    56  53  90 W3        29.84R
MARION         CLOUDY    52  50  93 N9        29.87R FOG
LANCASTER      CLOUDY    57  55  93 CALM      29.85R FOG
ZANESVILLE     CLOUDY    56  53  90 S6        29.85R
NEW PHILLY     LGT RAIN  55  54  96 CALM      29.84R FOG
$$



USA.gov is the U.S. government's official web portal to all federal, state and local government web resources and services.